This is the latest recevied weather packets stored in our database for station/object KB4RFE. If no packets are shown the sender has not sent any weather packets the latest 10 day(s).
| Time | Temp. | Humidity | Pressure | Rain* | Wind** | Luminosity | Snow |
|---|---|---|---|---|---|---|---|
| 1788218329 | 27.78° C | 84% | 1021.3 hPa | 0 mm | - | 32 W/m² | - |
| 1788218026 | 28.33° C | 83% | 1021.1 hPa | 0 mm | - | 39 W/m² | - |
| 1788217721 | 28.33° C | 83% | 1021.1 hPa | 0 mm | - | 44 W/m² | - |
| 1788217415 | 28.33° C | 82% | 1021.1 hPa | 0 mm | - | 49 W/m² | - |
| 1788217116 | 28.33° C | 81% | 1021.2 hPa | 0 mm | - | 55 W/m² | - |
| 1788216810 | 28.33° C | 83% | 1021.1 hPa | 0 mm | - | 59 W/m² | - |
| 1788216506 | 28.89° C | 83% | 1021.2 hPa | 0 mm | - | 65 W/m² | - |
| 1788216200 | 28.89° C | 83% | 1021.1 hPa | 0 mm | - | 68 W/m² | - |
| 1788215896 | 28.89° C | 81% | 1021.2 hPa | 0 mm | - | 70 W/m² | - |
| 1788215592 | 28.89° C | 82% | 1021.2 hPa | 0 mm | - | 74 W/m² | - |
| 1788215289 | 28.89° C | 81% | 1020.9 hPa | 0 mm | - | 80 W/m² | - |
| 1788214984 | 28.89° C | 82% | 1021 hPa | 0 mm | - | 88 W/m² | - |
| 1788214679 | 28.89° C | 82% | 1021.2 hPa | 0 mm | - | 93 W/m² | - |
| 1788214374 | 29.44° C | 82% | 1021.1 hPa | 0 mm | - | 102 W/m² | - |
| 1788214075 | 29.44° C | 82% | 1021.4 hPa | 0 mm | - | 108 W/m² | - |
| 1788213770 | 29.44° C | 81% | 1021.2 hPa | 0 mm | - | 122 W/m² | - |
| 1788213470 | 29.44° C | 82% | 1021.1 hPa | 0 mm | - | 132 W/m² | - |
| 1788213166 | 29.44° C | 81% | 1021.4 hPa | 0 mm | - | 142 W/m² | - |
| 1788212863 | 29.44° C | 81% | 1021.3 hPa | 0 mm | - | 153 W/m² | - |
| 1788212560 | 29.44° C | 81% | 1021.2 hPa | 0 mm | - | 174 W/m² | - |
| 1788212257 | 29.44° C | 83% | 1021.1 hPa | 0 mm | - | 189 W/m² | - |
| 1788211952 | 29.44° C | 82% | 1021.1 hPa | 0 mm | - | 168 W/m² | - |
| 1788211646 | 29.44° C | 82% | 1021 hPa | 0 mm | - | 168 W/m² | - |
| 1788211343 | 29.44° C | 81% | 1021 hPa | 0 mm | - | 169 W/m² | - |
| 1788211041 | 29.44° C | 81% | 1020.9 hPa | 0 mm | - | 172 W/m² | - |
* Rain latest hour (hover to see other rain measurements)
** Current wind speed in m/s (hover to see current wind gust speed)